When you browse on this site, cookies collect data to enhance your experience and personalize the content and advertising you see.
Visit our Privacy Policy to learn more. By continuing to use the site, you agree to this use of cookies and data.
  • In Austria
  • List of Countries
  • For 7 days
  • Water Temperature
  • Satellite Maps
  • Weather Map
  • News
  • Weather Widgets
  • user-avatar
    Login

    Hourly Weather Ganja

    Today, 20 July, Saturday

    Time Temperature Precipitation Wind Pressure Humidity
    00:00 +28°C° 0 mm 2 mps 725 mmHg 58%
    01:00 +27°C° 0 mm 2 mps 725 mmHg 61%
    02:00 +27°C° 0 mm 2 mps 725 mmHg 64%
    03:00 +26°C° 0 mm 2 mps 725 mmHg 67%
    04:00 +26°C° 0 mm 2 mps 725 mmHg 66%
    05:00 +26°C° 0 mm 3 mps 726 mmHg 65%
    06:00 +27°C° 0 mm 3 mps 726 mmHg 64%
    07:00 +28°C° 0 mm 3 mps 726 mmHg 61%
    08:00 +29°C° 0 mm 3 mps 726 mmHg 58%
    09:00 +30°C° 0 mm 3 mps 726 mmHg 56%
    10:00 +31°C° 0 mm 3 mps 726 mmHg 52%
    11:00 +33°C° 0 mm 3 mps 726 mmHg 48%
    12:00 +35°C° 0 mm 3 mps 726 mmHg 44%
    13:00 +35°C° 0 mm 4 mps 726 mmHg 40%
    14:00 +36°C° 0 mm 5 mps 726 mmHg 36%
    15:00 +38°C° 0 mm 6 mps 725 mmHg 32%
    16:00 +37°C° 0 mm 5 mps 725 mmHg 33%
    17:00 +36°C° 0 mm 5 mps 726 mmHg 34%
    18:00 +36°C° 0 mm 5 mps 726 mmHg 36%
    19:00 +34°C° 0 mm 5 mps 726 mmHg 38%
    20:00 +33°C° 0 mm 5 mps 726 mmHg 39%
    21:00 +30°C° 0 mm 5 mps 726 mmHg 41%
    22:00 +30°C° 0 mm 5 mps 727 mmHg 42%
    23:00 +29°C° 0 mm 4 mps 727 mmHg 42%

    Tomorrow, 21 July, Sunday

    Time Temperature Precipitation Wind Pressure Humidity
    00:00 +29°C° 0 mm 4 mps 727 mmHg 43%
    01:00 +28°C° 0 mm 4 mps 727 mmHg 44%
    02:00 +28°C° 0 mm 4 mps 727 mmHg 45%
    03:00 +27°C° 0 mm 3 mps 726 mmHg 46%
    04:00 +27°C° 0 mm 3 mps 726 mmHg 47%
    05:00 +27°C° 0 mm 3 mps 727 mmHg 48%
    06:00 +28°C° 0 mm 2 mps 727 mmHg 49%
    07:00 +29°C° 0 mm 3 mps 727 mmHg 45%
    08:00 +32°C° 0 mm 4 mps 726 mmHg 41%
    09:00 +33°C° 0 mm 4 mps 726 mmHg 37%
    10:00 +35°C° 0 mm 5 mps 726 mmHg 35%
    11:00 +36°C° 0 mm 6 mps 726 mmHg 33%
    12:00 +38°C° 0 mm 6 mps 726 mmHg 30%
    13:00 +39°C° 0 mm 6 mps 725 mmHg 30%
    14:00 +39°C° 0 mm 6 mps 724 mmHg 29%
    15:00 +40°C° 0 mm 6 mps 724 mmHg 29%
    16:00 +39°C° 0 mm 6 mps 724 mmHg 30%
    17:00 +39°C° 0 mm 5 mps 724 mmHg 32%
    18:00 +37°C° 0 mm 4 mps 724 mmHg 33%
    19:00 +35°C° 0 mm 4 mps 724 mmHg 36%
    20:00 +34°C° 0 mm 4 mps 724 mmHg 38%
    21:00 +32°C° 0 mm 4 mps 724 mmHg 40%
    22:00 +31°C° 0 mm 3 mps 724 mmHg 42%
    23:00 +30°C° 0 mm 3 mps 724 mmHg 44%

    Day after tomorrow, 22 July, Monday

    Time Temperature Precipitation Wind Pressure Humidity
    00:00 +29°C° 0 mm 3 mps 724 mmHg 46%
    01:00 +28°C° 0 mm 3 mps 724 mmHg 48%
    02:00 +28°C° 0 mm 2 mps 723 mmHg 51%
    03:00 +27°C° 0 mm 1 mps 723 mmHg 53%
    04:00 +27°C° 0 mm 1 mps 723 mmHg 54%
    05:00 +27°C° 0 mm 1 mps 723 mmHg 55%
    06:00 +28°C° 0 mm 1 mps 723 mmHg 56%
    07:00 +29°C° 0 mm 2 mps 723 mmHg 53%
    08:00 +30°C° 0 mm 2 mps 723 mmHg 50%
    09:00 +33°C° 0 mm 3 mps 723 mmHg 47%
    10:00 +34°C° 0 mm 3 mps 723 mmHg 44%
    11:00 +35°C° 0 mm 3 mps 723 mmHg 41%
    12:00 +36°C° 0 mm 3 mps 722 mmHg 39%
    13:00 +37°C° 0 mm 3 mps 722 mmHg 37%
    14:00 +38°C° 0 mm 4 mps 722 mmHg 35%
    15:00 +39°C° 0 mm 5 mps 721 mmHg 34%
    16:00 +39°C° 0 mm 6 mps 721 mmHg 35%
    17:00 +38°C° 0 mm 6 mps 721 mmHg 37%
    18:00 +36°C° 0 mm 6 mps 721 mmHg 38%
    19:00 +35°C° 0 mm 6 mps 722 mmHg 41%
    20:00 +34°C° 0 mm 5 mps 722 mmHg 44%
    21:00 +32°C° 0 mm 5 mps 723 mmHg 47%
    22:00 +30°C° 0 mm 4 mps 723 mmHg 49%
    23:00 +29°C° 0 mm 4 mps 722 mmHg 51%

    23 July, Tuesday

    Time Temperature Precipitation Wind Pressure Humidity
    00:00 +29°C° 0 mm 3 mps 722 mmHg 54%
    01:00 +28°C° 0 mm 3 mps 722 mmHg 57%
    02:00 +27°C° 0 mm 2 mps 722 mmHg 60%
    03:00 +26°C° 0 mm 2 mps 722 mmHg 64%
    04:00 +26°C° 0 mm 2 mps 722 mmHg 64%
    05:00 +26°C° 0 mm 2 mps 722 mmHg 64%
    06:00 +26°C° 0 mm 2 mps 723 mmHg 65%
    07:00 +28°C° 0 mm 2 mps 722 mmHg 60%
    08:00 +29°C° 0 mm 2 mps 722 mmHg 56%
    09:00 +30°C° 0 mm 2 mps 722 mmHg 52%
    10:00 +31°C° 0 mm 2 mps 722 mmHg 48%
    11:00 +34°C° 0 mm 3 mps 722 mmHg 44%
    12:00 +35°C° 0 mm 3 mps 721 mmHg 40%
    13:00 +36°C° 0 mm 3 mps 721 mmHg 38%
    14:00 +36°C° 0 mm 4 mps 720 mmHg 36%
    15:00 +37°C° 0 mm 5 mps 720 mmHg 34%
    16:00 +37°C° 0.1 mm 4 mps 720 mmHg 35%
    17:00 +36°C° 0.1 mm 3 mps 720 mmHg 37%
    18:00 +35°C° 0.1 mm 3 mps 720 mmHg 39%
    19:00 +34°C° 0 mm 3 mps 721 mmHg 43%
    20:00 +32°C° 0 mm 2 mps 721 mmHg 46%
    21:00 +30°C° 0 mm 2 mps 721 mmHg 50%
    22:00 +30°C° 0 mm 2 mps 721 mmHg 51%
    23:00 +29°C° 0 mm 2 mps 721 mmHg 52%

    24 July, Wednesday

    Time Temperature Precipitation Wind Pressure Humidity
    00:00 +28°C° 0 mm 3 mps 721 mmHg 53%
    01:00 +28°C° 0 mm 2 mps 721 mmHg 55%
    02:00 +27°C° 0 mm 2 mps 721 mmHg 57%
    03:00 +27°C° 0 mm 2 mps 721 mmHg 60%
    04:00 +27°C° 0 mm 2 mps 721 mmHg 60%
    05:00 +27°C° 0 mm 2 mps 721 mmHg 60%
    06:00 +27°C° 0 mm 2 mps 721 mmHg 61%
    07:00 +28°C° 0 mm 2 mps 721 mmHg 58%
    08:00 +29°C° 0 mm 2 mps 721 mmHg 56%
    09:00 +31°C° 0 mm 3 mps 721 mmHg 53%
    10:00 +32°C° 0 mm 2 mps 721 mmHg 49%
    11:00 +34°C° 0 mm 2 mps 720 mmHg 46%
    12:00 +35°C° 0 mm 2 mps 720 mmHg 42%
    13:00 +36°C° 0.1 mm 2 mps 720 mmHg 39%
    14:00 +37°C° 0.1 mm 3 mps 719 mmHg 37%
    15:00 +38°C° 0.1 mm 3 mps 719 mmHg 34%
    16:00 +38°C° 0 mm 3 mps 719 mmHg 35%
    17:00 +37°C° 0 mm 3 mps 719 mmHg 35%
    18:00 +37°C° 0 mm 3 mps 719 mmHg 36%
    19:00 +35°C° 0 mm 3 mps 720 mmHg 39%
    20:00 +34°C° 0 mm 3 mps 720 mmHg 42%
    21:00 +31°C° 0 mm 3 mps 721 mmHg 45%
    22:00 +30°C° 0 mm 3 mps 721 mmHg 47%
    23:00 +29°C° 0 mm 3 mps 721 mmHg 50%

    25 July, Thursday

    Time Temperature Precipitation Wind Pressure Humidity
    00:00 +28°C° 0 mm 3 mps 721 mmHg 52%
    01:00 +27°C° 0 mm 3 mps 721 mmHg 56%
    02:00 +27°C° 0 mm 2 mps 721 mmHg 59%
    03:00 +26°C° 0 mm 2 mps 721 mmHg 63%
    04:00 +26°C° 0 mm 2 mps 721 mmHg 63%
    05:00 +27°C° 0 mm 3 mps 721 mmHg 63%
    06:00 +27°C° 0 mm 3 mps 721 mmHg 63%
    07:00 +28°C° 0 mm 4 mps 721 mmHg 59%
    08:00 +30°C° 0 mm 4 mps 721 mmHg 55%
    09:00 +32°C° 0 mm 4 mps 721 mmHg 51%
    10:00 +33°C° 0 mm 3 mps 720 mmHg 48%
    11:00 +34°C° 0 mm 3 mps 720 mmHg 45%
    12:00 +35°C° 0 mm 2 mps 720 mmHg 42%
    13:00 +36°C° 0.1 mm 2 mps 719 mmHg 40%
    14:00 +37°C° 0.1 mm 2 mps 719 mmHg 38%
    15:00 +38°C° 0.1 mm 3 mps 719 mmHg 36%
    16:00 +37°C° 0 mm 3 mps 718 mmHg 37%
    17:00 +37°C° 0 mm 4 mps 718 mmHg 37%
    18:00 +37°C° 0 mm 4 mps 718 mmHg 38%
    19:00 +35°C° 0 mm 5 mps 719 mmHg 41%
    20:00 +33°C° 0 mm 5 mps 719 mmHg 44%
    21:00 +32°C° 0 mm 5 mps 720 mmHg 47%
    22:00 +29°C° 0 mm 4 mps 720 mmHg 52%
    23:00 +28°C° 0 mm 4 mps 720 mmHg 58%
    Show more